Starlink 3301

operational
NORAD ID: 50169 Int'l Des: 2021-125 Owner: SPXS Country: US Constellation: starlink
LEOCIRCULAR

About Starlink 3301

Description loading...

Live Position

Loading 3D Globe...

Upcoming Passes

Altitude History

Altitude vs Time

uPlot chart will show altitude changes over time

Two-Line Element Set

1 50169U 21125P 25259.13805626 .00000801 00000-0 68427-4 0 9996
2 50169 53.2182 312.7156 0001285 89.6254 270.4885 15.08839631210257
Epoch: Sep 16, 2025 • Age: 10 hours

Current Status

Altitude 540.5 km
Velocity 7.60 km/s
Sub-Earth Point 27.30°N, 89.89°W
Launch Date Dec 18, 2021
Age 3.7 years
Type internet

Technical Details

Classification Payload
Mass 290.00 kg
Dry Mass 270.00 kg
Total Mass 290.00 kg
Length 0.20 m
Diameter 2.80 m
Span 9.00 m
Shape Box + pan
Manufacturer SPXS
Bus Type Starlink
Phase Status In Orbit
Owner/State SPXS/US

Large Constellations

Loading constellations...